Location: Marcé
(47.5801°N, 0.3280°W)
Time: 18:28:43
(UTC+01:00)

Vanguard 2 Rocket - Pass Details

Date: 14 December 2021
Orbit: 553 x 3325 km, 32.9° (Epoch: 23 January)

Event Time Altitude Azimuth Distance (km) Brightness Sun altitude
Rises 17:36:57 0° 233° (SW) 2,740 11.9 -4.7°
Reaches altitude 10° 17:39:55 10° 206° (SSW) 1,963 9.6 -5.1°
Maximum altitude 17:42:17 14° 172° (S) 1,842 8.8 -5.5°
Drops below altitude 10° 17:45:03 10° 140° (SE) 2,355 8.9 -5.9°
Sets 17:49:16 0° 118° (ESE) 3,740 9.7 -6.5°
